San Jose, Costa Rica

10:21 AM CST on March 26, 2017 (GMT -0600)
San Jose

Weather History for 78762 - March, 2013

Change the Weather History Date:

Thursday, March 14, 2013

  Actual Average Record
Temperature  
Mean Temperature 74 °F -  
Max Temperature 81 °F 83 °F - ()
Min Temperature 67 °F 64 °F - ()
Cooling Degree Days 9    
Growing Degree Days 24 (Base 50)    
Moisture  
Dew Point 57 °F    
Average Humidity 58    
Maximum Humidity 73    
Minimum Humidity 35    
Precipitation  
Precipitation 0.00 in 0.06 in - ()
Sea Level Pressure  
Sea Level Pressure 29.96 in    
Wind  
Wind Speed 14 mph ()    
Max Wind Speed 18 mph    
Max Gust Speed 34 mph    
Visibility 7.9 miles    
Events      
T = Trace of Precipitation, MM = Missing Value Source: Averaged Metar Reports

Daily Weather History Graph

Daily Weather History Graph

Search for Another Location

Airport or City:

Trip Planner

Search our weather history database for the weather conditions in past years. The results will help you decide how hot, cold, wet, or windy it might be!

Date:

Astronomy

Mar. 14, 2013 Rise Set
Actual Time 5:44 AM CST 5:47 PM CST
Civil Twilight 5:23 AM CST 6:08 PM CST
Nautical Twilight 4:58 AM CST 6:33 PM CST
Astronomical Twilight 4:34 AM CST 6:57 PM CST
Moon 7:36 AM CST (3/14) 8:18 PM CST (3/14)
Length of Visible Light 12h 45m
Length of Day
12h 03m
Waxing Crescent, 9% of the Moon is Illuminated
Mar 14
Waxing Crescent
Mar 19
First Quarter
Mar 27
Full
Apr 2
Last Quarter
Apr 10
New

Hourly Weather History & Observations

Time (CST) Temp. Heat Index Dew Point Humidity Pressure Visibility Wind Dir Wind Speed Gust Speed Precip Events Conditions
12:00 AM 69 °F - 58 °F 58% 29.85 in 12 mi ESE 16.1 mph - -  
12:00 AM 69.8 °F - 57.2 °F 64% 30.02 in - ESE 16.1 mph 27.6 mph N/A   Clear
1:00 AM 68.0 °F - 59.0 °F 73% 29.99 in - ESE 15.0 mph 26.5 mph N/A   Clear
2:00 AM 68.0 °F - 59.0 °F 73% 29.97 in - East 12.7 mph 24.2 mph N/A   Clear
3:00 AM 69 °F - 58 °F 60% 29.80 in 12 mi ESE 12.7 mph - -  
3:00 AM 68.0 °F - 59.0 °F 73% 29.97 in - ESE 12.7 mph 24.2 mph N/A   Clear
4:00 AM 68.0 °F - 59.0 °F 73% 29.97 in 6.2 mi East 12.7 mph 27.6 mph N/A   Partly Cloudy
5:00 AM 68.0 °F - 57.2 °F 68% 29.98 in 6.2 mi East 15.0 mph 26.5 mph N/A   Partly Cloudy
6:00 AM 68 °F - 57 °F 59% 29.85 in 12 mi East 13.8 mph - -   Scattered Clouds
6:00 AM 68.0 °F - 57.2 °F 68% 30.00 in 6.2 mi East 13.8 mph 25.3 mph N/A   Scattered Clouds
7:00 AM 69.8 °F - 59.0 °F 68% 30.01 in 6.2 mi East 17.3 mph 28.8 mph N/A   Mostly Cloudy
8:00 AM 71.6 °F - 57.2 °F 60% 30.03 in 6.2 mi East 12.7 mph 24.2 mph N/A   Mostly Cloudy
9:00 AM 73 °F - 57 °F 47% 29.87 in 12 mi East 15.0 mph - -   Scattered Clouds
9:00 AM 73.4 °F - 57.2 °F 57% 30.04 in 6.2 mi East 15.0 mph 27.6 mph N/A   Mostly Cloudy
10:00 AM 77.0 °F - 57.2 °F 50% 30.03 in 6.2 mi East 17.3 mph 34.5 mph N/A   Mostly Cloudy
11:00 AM 80.6 °F 80.5 °F 55.4 °F 42% 30.01 in 6.2 mi East 17.3 mph 32.2 mph N/A   Mostly Cloudy
12:00 PM 79 °F - 56 °F 35% 29.83 in 12 mi East 16.1 mph - -   Scattered Clouds
12:00 PM 78.8 °F - 57.2 °F 47% 29.99 in 6.2 mi East 16.1 mph 28.8 mph N/A   Mostly Cloudy
1:00 PM 77.0 °F - 55.4 °F 47% 29.97 in 6.2 mi East 17.3 mph 29.9 mph N/A   Mostly Cloudy
2:00 PM 77.0 °F - 57.2 °F 50% 29.95 in 6.2 mi East 17.3 mph 28.8 mph N/A   Scattered Clouds
3:00 PM 77 °F - 55 °F 35% 29.81 in 12 mi ESE 17.3 mph - -   Scattered Clouds
3:00 PM 77.0 °F - 55.4 °F 47% 29.95 in 6.2 mi ESE 17.3 mph 28.8 mph N/A   Scattered Clouds
4:00 PM 73.4 °F - 51.8 °F 47% 29.95 in 6.2 mi ESE 13.8 mph 26.5 mph N/A   Mostly Cloudy
5:00 PM 71.6 °F - 51.8 °F 50% 29.96 in 6.2 mi ESE 18.4 mph 29.9 mph N/A   Mostly Cloudy
6:00 PM 69 °F - 54 °F 49% 29.83 in 12 mi East 17.3 mph - -   Scattered Clouds
6:00 PM 68.0 °F - 53.6 °F 60% 29.97 in 6.2 mi East 17.3 mph 28.8 mph N/A   Scattered Clouds
7:00 PM 68.0 °F - 55.4 °F 64% 30.00 in 6.2 mi ESE 13.8 mph - N/A   Scattered Clouds
8:00 PM 68.0 °F - 57.2 °F 68% 30.01 in 6.2 mi ESE 17.3 mph 34.5 mph N/A   Partly Cloudy
9:00 PM 68 °F - 57 °F 60% 29.88 in 12 mi SE 16.1 mph - -   Scattered Clouds
9:00 PM 68.0 °F - 57.2 °F 68% 30.03 in 6.2 mi SE 16.1 mph 31.1 mph N/A   Partly Cloudy
10:00 PM 68.0 °F - 55.4 °F 64% 30.03 in 6.2 mi SE 18.4 mph 29.9 mph N/A   Partly Cloudy
11:00 PM 68.0 °F - 55.4 °F 64% 30.05 in 6.2 mi ESE 16.1 mph 27.6 mph N/A   Partly Cloudy